Weather History for Lander, WY

Change the Weather History Date:

Tuesday, October 1, 2013

  Actual Average Record
Temperature  
Mean Temperature 54 °F 51 °F  
Max Temperature 69 °F 65 °F 85 °F (1963)
Min Temperature 38 °F 38 °F 24 °F (1950)
Degree Days  
Heating Degree Days 11 14  
Month to date heating degree days 11 14  
Since 1 July heating degree days 203 273  
Cooling Degree Days 0 0  
Month to date cooling degree days 0 0  
Year to date cooling degree days 743 472  
Growing Degree Days 5 (Base 50)    
Moisture  
Dew Point 33 °F    
Average Humidity 47    
Maximum Humidity 70    
Minimum Humidity 24    
Precipitation  
Precipitation 0.00 in 0.05 in 1.50 in (1891)
Month to date precipitation 0.00 0.05  
Year to date precipitation 11.64 9.98  
Snow  
Snow 0.00 in 0.20 in - ()
Month to date snowfall 0.0 0.2  
Since 1 July snowfall 4.1 2.9  
Since 1 September snowfall 4.1 2.9  
Snow Depth 0.00 in    
Sea Level Pressure  
Sea Level Pressure 29.82 in    
Wind  
Wind Speed 5 mph (NW)    
Max Wind Speed 14 mph    
Max Gust Speed 17 mph    
Visibility 10 miles    
Events      
T = Trace of Precipitation, MM = Missing Value Source: NWS Daily Summary

Daily Weather History Graph

Daily Weather History Graph

Search for Another Location

Airport:

Trip Planner

Search our weather history database for the weather conditions in past years. The results will help you decide how hot, cold, wet, or windy it might be!

Date:

Astronomy

Oct. 01, 2013 Rise Set
Actual Time 7:12 AM MDT 6:55 PM MDT
Civil Twilight 6:44 AM MDT 7:23 PM MDT
Nautical Twilight 6:11 AM MDT 7:56 PM MDT
Astronomical Twilight 5:38 AM MDT 8:29 PM MDT
Moon 3:45 AM MDT (10/1) 5:04 PM MDT (10/1)
Length of Visible Light 12h 39m
Length of Day
11h 43m
Waning Crescent, 11% of the Moon is Illuminated
Oct 1
Waning Crescent
Oct 4
New
Oct 11
First Quarter
Oct 18
Full
Oct 26
Last Quarter

Hourly Weather History & Observations

Time (MDT) Temp. Windchill Dew Point Humidity Pressure Visibility Wind Dir Wind Speed Gust Speed Precip Events Conditions
12:53 AM 52.0 °F - 35.1 °F 53% 29.79 in 10.0 mi SE 9.2 mph - N/A   Clear
1:53 AM 48.0 °F - 36.0 °F 63% 29.83 in 10.0 mi North 4.6 mph - N/A   Clear
2:53 AM 46.0 °F 43.9 °F 35.1 °F 66% 29.85 in 10.0 mi West 4.6 mph - N/A   Clear
3:53 AM 46.0 °F 44.8 °F 34.0 °F 63% 29.85 in 10.0 mi Variable 3.5 mph - N/A   Clear
4:53 AM 46.9 °F - 33.1 °F 59% 29.85 in 10.0 mi Calm Calm - N/A   Clear
5:53 AM 42.1 °F - 34.0 °F 73% 29.88 in 10.0 mi Calm Calm - N/A   Clear
6:53 AM 43.0 °F 41.3 °F 34.0 °F 71% 29.89 in 10.0 mi ESE 3.5 mph - N/A   Clear
7:53 AM 46.0 °F - 34.0 °F 63% 29.89 in 10.0 mi Calm Calm - N/A   Clear
8:53 AM 46.9 °F - 36.0 °F 66% 29.89 in 10.0 mi North 5.8 mph - N/A   Clear
9:53 AM 53.1 °F - 35.1 °F 50% 29.88 in 10.0 mi NW 3.5 mph - N/A   Clear
10:53 AM 57.0 °F - 35.1 °F 44% 29.86 in 10.0 mi Calm Calm - N/A   Clear
11:53 AM 61.0 °F - 37.0 °F 41% 29.85 in 10.0 mi Variable 3.5 mph - N/A   Clear
12:53 PM 63.0 °F - 35.1 °F 35% 29.82 in 10.0 mi North 5.8 mph - N/A   Clear
1:53 PM 64.9 °F - 33.1 °F 31% 29.80 in 10.0 mi North 6.9 mph - N/A   Clear
2:53 PM 68.0 °F - 30.0 °F 24% 29.78 in 10.0 mi NNE 3.5 mph - N/A   Clear
3:53 PM 66.9 °F - 30.9 °F 26% 29.76 in 10.0 mi Variable 5.8 mph - N/A   Clear
4:53 PM 68.0 °F - 34.0 °F 28% 29.74 in 10.0 mi ENE 6.9 mph - N/A   Clear
5:53 PM 64.9 °F - 37.0 °F 36% 29.76 in 10.0 mi ENE 8.1 mph - N/A   Clear
6:53 PM 61.0 °F - 37.0 °F 41% 29.77 in 10.0 mi Calm Calm - N/A   Clear
7:53 PM 63.0 °F - 30.9 °F 30% 29.76 in 10.0 mi SSW 8.1 mph - N/A   Clear
8:53 PM 62.1 °F - 28.0 °F 28% 29.78 in 10.0 mi WSW 13.8 mph - N/A   Clear
9:53 PM 59.0 °F - 28.0 °F 31% 29.79 in 10.0 mi SW 12.7 mph - N/A   Clear
10:53 PM 57.9 °F - 28.0 °F 32% 29.79 in 10.0 mi WSW 13.8 mph - N/A   Clear
11:53 PM 54.0 °F - 28.9 °F 38% 29.80 in 10.0 mi West 10.4 mph - N/A   Clear